Regional Weather Roundup
Issued by NWS San Diego, CA

Current Version | Previous Version | Text Only | Print | Product List | Glossary On
Versions: 1 2 3 4 5 6 7 8 9 10 11 12 13 14 15 16 17 18 19 20 21 22 23 24 25 26 27 28 29 30 31 32 33 34 35 36 37 38 39 40 41 42 43 44 45 46 47 48 49 50
000
ASUS46 KSGX 271910
RWRSGX

SAN DIEGO HOURLY WEATHER ROUNDUP
NATIONAL WEATHER SERVICE SAN DIEGO CA
1200 PM PDT WED AUG 27 2014

NOTE: "FAIR" INDICATES FEW OR NO CLOUDS BELOW 12,000 FEET WITH NO
SIGNIFICANT WEATHER AND/OR OBSTRUCTIONS TO VISIBILITY.

CAZ042-043-060-061-PZZ750-775-272000-

GREATER SAN DIEGO AREA

CITY           SKY/WX    TMP DP  RH WIND       PRES   REMARKS
LINDBERGH FLD  SUNNY     83  61  47 NW9       30.03F
POINT LOMA       N/A     76  64  66 NW21        N/A
NATIONAL CITY    N/A     87  65  47 N8        30.02S
CHULA VISTA      N/A     87  65  48 W6        29.95F
IMPERIAL BEACH MOSUNNY   79  65  62 W13       30.02F
BROWN FIELD    SUNNY     89  57  33 W8        30.02F
MIRAMAR MCAS   SUNNY     91  52  26 W9        30.02F
MONTGOMERY FLD SUNNY     92  50  23 NW6       30.02F

$$

NORTH SAN DIEGO COUNTY

CITY           SKY/WX    TMP DP  RH WIND       PRES   REMARKS
CAMP PENDLETON SUNNY     87  51  28 SW8       30.01S
OCEANSIDE AP   SUNNY     83  60  45 W8        30.01F
OCEANSIDE HBR    N/A     74  67  78 W9        30.05F
VISTA            N/A     88  57  34 W3        30.00S
CARLSBAD       SUNNY     80  60  50 W10       30.02F
DEL MAR          N/A     78  68  70 CALM      30.05F
LA JOLLA SCRIP   N/A     73  69  87 W3        30.00F
FALLBROOK        N/A     93  48  21 SW6       30.01F
ESCONDIDO        N/A     94  61  33 W12       30.02F
SAN MARCOS       N/A     87  60  38 W12       30.00S
POWAY            N/A     93  58  30 W5        30.02F

$$

EAST SAN DIEGO COUNTY

CITY           SKY/WX    TMP DP  RH WIND       PRES   REMARKS
RAMONA         SUNNY     92  47  21 NW9       30.06F
SANTEE LAKES     N/A     93  57  29 SW3       30.01F
LA MESA          N/A     90  61  37 CALM      29.95F
JAMUL            N/A     92  59  33 W1        29.99F
DESCANSO N       N/A     86  49  27 W3        29.92F
MT. LAGUNA OBS   N/A     75  42  30 W10       29.88S
CAMPO            N/A     91  42  18 NW9       30.08F

$$

ORANGE COUNTY AND THE LOS ANGELES BASIN

CITY           SKY/WX    TMP DP  RH WIND       PRES   REMARKS
JOHN WAYNE AP  SUNNY     92  58  31 SW5       30.01F
LAGUNA BEACH     N/A     77  68  73 CALM      30.00S
LAKE FOREST FR   N/A     90  47  22 CALM      29.92F
SANTA ANA        N/A     91  63  39 SW1       29.96F
HUNTINGTON BCH   N/A     77  69  76 W8        30.05S
LOS ALAMITOS   SUNNY     87  62  42 SW8       30.02F
FULLERTON      SUNNY     92  52  25 CALM      30.01F
LONG BEACH     SUNNY     88  59  37 VRB5      30.02F
L.A. AP        MOSUNNY   80  63  55 W10       30.04S
L.A. DOWNTOWN  SUNNY     90  51  26 VRB3      30.01F

$$

THE INLAND EMPIRE

CITY           SKY/WX    TMP DP  RH WIND       PRES   REMARKS
CORONA         SUNNY     92  52  25 VRB7      30.02F
CHINO          MOSUNNY   90  46  22 CALM      30.04F
ONTARIO        MOSUNNY   90  42  18 W6        30.04F
SAN BERNARDINO SUNNY     90  39  17 CALM      30.05
RIVERSIDE AP   SUNNY     90  46  21 W6        30.04F
RIV CYN CREST    N/A     89  56  33 W2        30.02F
MORENO VALLEY    N/A     90  52  27 CALM      29.26F
MARCH ARB      SUNNY     90  49  24 NW8       30.07F
HORSETHIEF CYN   N/A     91  45  20 NW3       30.02F
PERRIS           N/A     90  48  23 E1        30.04F
MENIFEE          N/A     91  51  25 S1        30.12F
HEMET EAST       N/A     89  43  19 CALM      30.02F
FRENCH VALLEY  FAIR      90  46  22 SW5       30.06F
TEMECULA         N/A     91  49  23 CALM      30.01F

$$

SAN BERNARDINO AND RIVERSIDE COUNTY MOUNTAINS

CITY           SKY/WX    TMP DP  RH WIND       PRES   REMARKS
BIG BEAR AP    SUNNY     72  37  28 W10G17    30.38S
ANGELUS OAKS     N/A     77  48  35 CALM      29.94F
PINE COVE        N/A     72  45  38 NW3       29.95S

$$

SOUTHERN DESERT INCLUDING THE COACHELLA VALLEY

CITY           SKY/WX    TMP DP  RH WIND       PRES   REMARKS
PALM SPRINGS   MOSUNNY  100  50  18 SE5       29.96F HX  97
THOUSAND PALMS   N/A    100  54  21 SW3       29.92F HX  97
PALM DESERT      N/A    103  56  21 SE3       26.48F HX 101
THERMAL        SUNNY    101  49  17 VRB3      29.90F HX  98
BLYTHE         SUNNY     98  46  17 SE3       29.95F
IMPERIAL AP    SUNNY    100  51  19 VRB5      29.92F HX  97
EL CENTRO NAS  MOSUNNY  102  45  14 VRB7      29.92F HX  98
YUMA AZ        MOSUNNY  101  45  15 NW9       29.95F HX  97
MEXICALI       SUNNY    100  45  15 W7        29.95  HX  96

$$

UPPER DESERT

CITY           SKY/WX    TMP DP  RH WIND       PRES   REMARKS
VICTORVILLE AP SUNNY     88  27  11 NW8       30.13F
HESPERIA         N/A     88  48  24 CALM      30.11F
APPLE VALLEY     N/A     90  43  19 W3        30.15F
PALMDALE       SUNNY     90  29  11 NW10      30.11F
LANCASTER      SUNNY     90  27  10 VRB3      30.10F
EDWARDS AFB    MOSUNNY   89  31  12 VRB2      30.08F
DAGGETT        SUNNY     92  37  14 NW15G21   30.07F
29 PALMS N     SUNNY     92  45  19 W7        30.13F
NEEDLES        SUNNY     98  56  24 N6        29.99F HX  96

$$

REGIONAL REPORTS

CITY           SKY/WX    TMP DP  RH WIND       PRES   REMARKS
SANTA BARBARA  SUNNY     78  57  48 SW7         N/A
SANDBERG       SUNNY     85  35  16 SW6       30.25S
MT. WILSON       N/A     79  43  27 W5          N/A
LAS VEGAS NV   MOSUNNY   88  47  24 VRB5      30.06F
PHOENIX AZ     MOSUNNY   97  62  31 VRB5      30.00F HX  98
TIJUANA        SUNNY     90  50  25 NW12      30.04F
ENSENADA NW      N/A     78  32  18 W20       29.98S

$$

OFFSHORE ISLANDS

CITY           SKY/WX    TMP DP  RH WIND       PRES   REMARKS
CATALINA ARPT  SUNNY     80  54  40 W7        30.11S
SAN NICOLAS IS SUNNY     76  64  66 VRB3      30.06S

$$

MARINE AND OFFSHORE BUOY REPORTS

STATION/POSITION SKY/WX   TEMP    WIND        PRES    SWELL
                          AIR SEA DIR/SP/G            HT/PER/DIR
                          (F)     (DEG/KT/KT) (MB)    (FT/S/D)
TANNER BANKS               68 70  340/  8/ 10 1017.8F  10/160/12
S CLEMENTE BASIN           71 72  330/  8/ 12 1017.1F  10/190/14
SAN NICOLAS IS.               69                N/A    10/160/14
SO. S. ROSA ISLA           65 69  320/ 12/ 16 1017.4S  10/14
W. S. BARBARA CH           63 63  310/ 12/ 14 1017.3R   5/210/16
M. S. BARBARA CH           66 67  220/  4/  4 1017.8R
S. MONICA BASIN            70 72  300/  4/  6 1017.0F   7/170/14
S PEDRO CHANNEL               72                N/A     8/160/14
DANA POINT                    72                N/A     7/170/13
CMP PENDLETON NS              70                N/A     5/210/14
OCEANSIDE OFFSHR              71                N/A     7/180/14
TORREY PINES OTR              74                N/A     7/180/14
LA JOLLA 1                 73 69  350/  5/  5 1016.9F
MISSION BAY BUOY              74                N/A     7/170/13
SAN DIEGO BAY                 74              1017.0S
POINT LOMA SOUTH              73                N/A     8/170/13

$$




USA.gov is the U.S. government's official web portal to all federal, state and local government web resources and services.